(162163) = 1999 ER = 2003 HO35

Discovered at Kitt Peak on 1999-03-06 by Spacewatch.

Orbit

Orbit type: Main Belt

Note: WebGL enabled browser required.

epoch2024-03-31.0
epoch JD2460400.5
perihelion date2021-05-23.63328
perihelion JD2459358.13328
argument of perihelion (°)145.09029
ascending node (°)149.49175
inclination (°)3.49598
eccentricity0.2112996
perihelion distance (AU)1.8188064
Tisserand w.r.t. Jupiter3.6
ΔV w.r.t. Earth (km/sec)8.4
semimajor axis (AU)2.3060803
mean anomaly (°)293.36801
mean daily motion (°/day)0.28144410
aphelion distance (AU)2.793
period (years)3.5
P-vector [x]0.41653646
P-vector [y]-0.84736692
P-vector [z]-0.32934280
Q-vector [x]0.90859181
Q-vector [y]0.40035355
Q-vector [z]0.11907126
absolute magnitude17.2
phase slope0.15
uncertainty0
referenceMPEC 2024-F07
observations used516
oppositions18
arc length (days)9142
first opposition used1999
last opposition used2024
residual rms (arc-secs)0.67
perturbers coarse indicatorM-v
perturbers precise indicator003Ek
first observation date used1999-03-06.0
last observation date used2024-03-16.0
computer nameMPCLINUX
JD of orbit computation2456937.185833
perihelion JD uncertainty (days)4.6509E-05
argument of perihelion uncertainty (°)5.5827E-05
ascending node uncertainty (°)5.3611E-05
inclination uncertainty (°)6.5199E-06
eccentricity uncertainty 4.4033E-08
perihelion distance uncertainty (AU)1.0104E-07
Minimum Orbit Intersection Distances (in AU)
for orbit epoch: 2460400.5, reference: E2024-G51
Mercury1.37389
Venus1.0939
Earth0.80396
Mars0.40853
Jupiter2.40211
Saturn6.27701
Uranus15.7755
Neptune27.2641

Observations

520 total observations over interval: 1999 03 06.16119 – 2024 03 16.569753
These data are available for download (format description).

Date (UT) J2000 RA J2000 Dec Magn Location Ref
1999 03 06.16119 09 57 40.09 +12 51 06.0 20.9 V 691 – Steward Observatory, Kitt Peak-Spacewatch MPS 4216
1999 03 06.18273 09 57 38.90 +12 51 14.2 21.4 V 691 – Steward Observatory, Kitt Peak-Spacewatch MPS 4216
1999 03 06.20405 09 57 37.66 +12 51 21.3 21.3 V 691 – Steward Observatory, Kitt Peak-Spacewatch MPS 4216
1999 03 09.19959 09 54 57.32 +13 09 12.3 21.8 V 691 – Steward Observatory, Kitt Peak-Spacewatch MPS 4216
1999 03 09.22104 09 54 56.18 +13 09 19.4 21.3 V 691 – Steward Observatory, Kitt Peak-Spacewatch MPS 4216
1999 03 09.24362 09 54 54.98 +13 09 27.7 21.6 V 691 – Steward Observatory, Kitt Peak-Spacewatch MPS 4216
2000 08 24.27292 22 56 47.99 -07 41 28.8 18.0   704 – Lincoln Laboratory ETS, New Mexico MPS 106059
2000 08 24.28562 22 56 47.36 -07 41 35.4 18.9   704 – Lincoln Laboratory ETS, New Mexico MPS 106059
2000 08 24.29836 22 56 46.76 -07 41 41.3 19.0   704 – Lincoln Laboratory ETS, New Mexico MPS 106059
2000 08 24.31110 22 56 46.10 -07 41 47.8 19.1   704 – Lincoln Laboratory ETS, New Mexico MPS 106059
2000 08 24.32384 22 56 45.48 -07 41 53.5 18.3   704 – Lincoln Laboratory ETS, New Mexico MPS 106059
2000 09 05.22543 22 47 08.73 -09 18 50.6 18.6   704 – Lincoln Laboratory ETS, New Mexico MPS 106059
2000 09 05.23879 22 47 08.05 -09 18 57.7 18.2   704 – Lincoln Laboratory ETS, New Mexico MPS 106059
2000 09 05.25217 22 47 07.34 -09 19 03.6 18.2   704 – Lincoln Laboratory ETS, New Mexico MPS 106059
2000 09 24.25553 22 34 38.02 -11 20 46.1 19.0   704 – Lincoln Laboratory ETS, New Mexico MPS 106059
2000 09 24.27042 22 34 37.65 -11 20 49.9 19.1   704 – Lincoln Laboratory ETS, New Mexico MPS 106059
2000 09 24.28530 22 34 37.18 -11 20 53.1 19.4   704 – Lincoln Laboratory ETS, New Mexico MPS 106059
2000 09 24.30023 22 34 36.79 -11 20 56.5 19.9   704 – Lincoln Laboratory ETS, New Mexico MPS 106059
2000 09 24.31511 22 34 36.30 -11 21 01.7 19.6   704 – Lincoln Laboratory ETS, New Mexico MPS 106059
2003 04 26.40948 14 03 01.58 -06 14 01.2 21.2   608 – Haleakala-AMOS MPS 78522
2003 04 26.41964 14 03 00.97 -06 13 57.0 20.8   608 – Haleakala-AMOS MPS 78522
2003 04 26.43042 14 03 00.26 -06 13 52.7 20.7   608 – Haleakala-AMOS MPS 78522
2003 04 30.25541 13 59 18.47 -05 49 44.6 19.8 V 691 – Steward Observatory, Kitt Peak-Spacewatch MPS 78522
2003 04 30.30234 13 59 15.64 -05 49 27.1 19.8 V 691 – Steward Observatory, Kitt Peak-Spacewatch MPS 78522
2003 04 30.32972 13 59 14.01 -05 49 16.8 19.7 V 691 – Steward Observatory, Kitt Peak-Spacewatch MPS 78522
2004 11 10.30783 04 09 11.01 +15 10 28.5 20.8 V 691 – Steward Observatory, Kitt Peak-Spacewatch MPS 119191
2004 11 10.33622 04 09 09.17 +15 10 22.6 20.7 V 691 – Steward Observatory, Kitt Peak-Spacewatch MPS 119191
2004 11 10.36272 04 09 07.44 +15 10 17.1 20.5 V 691 – Steward Observatory, Kitt Peak-Spacewatch MPS 119191
2006 01 31.34381 10 26 07.54 +09 28 12.2 21.0 V 691 – Steward Observatory, Kitt Peak-Spacewatch MPS 161564
2006 01 31.36120 10 26 06.72 +09 28 17.6 21.0 V 691 – Steward Observatory, Kitt Peak-Spacewatch MPS 161564
2006 01 31.37858 10 26 05.89 +09 28 23.6 20.9 V 691 – Steward Observatory, Kitt Peak-Spacewatch MPS 161564
2006 02 20.39198 10 07 51.13 +11 36 20.7 20.2 V G96 – Mt. Lemmon Survey MPS 163553
2006 02 20.39885 10 07 50.73 +11 36 23.6 20.1 V G96 – Mt. Lemmon Survey MPS 163553
2006 02 20.40426 10 07 50.34 +11 36 25.8 20.2 V G96 – Mt. Lemmon Survey MPS 163553
2006 02 20.40897 10 07 50.08 +11 36 27.9 20.5 V G96 – Mt. Lemmon Survey MPS 163553
2007 08 09.23791 22 58 14.07 -06 30 39.6   691 – Steward Observatory, Kitt Peak-Spacewatch MPS 212470
2007 08 09.25556 22 58 13.53 -06 30 46.1   691 – Steward Observatory, Kitt Peak-Spacewatch MPS 212470
2007 08 09.27134 22 58 13.03 -06 30 51.7 19.3   704 – Lincoln Laboratory ETS, New Mexico MPS 212470
2007 08 09.27666 22 58 12.90 -06 30 54.4   691 – Steward Observatory, Kitt Peak-Spacewatch MPS 212470
2007 08 09.28310 22 58 12.66 -06 30 56.0 19.7   704 – Lincoln Laboratory ETS, New Mexico MPS 212470
2007 08 09.29482 22 58 12.29 -06 30 58.0 20.2   704 – Lincoln Laboratory ETS, New Mexico MPS 212470
2007 08 09.30663 22 58 11.86 -06 31 04.5 20.1   704 – Lincoln Laboratory ETS, New Mexico MPS 212470
2007 08 09.31844 22 58 11.51 -06 31 09.7 19.8   704 – Lincoln Laboratory ETS, New Mexico MPS 212470
2007 08 15.26911 22 54 55.24 -07 11 39.4 19.3   704 – Lincoln Laboratory ETS, New Mexico MPS 213646
2007 08 15.28124 22 54 54.82 -07 11 43.2 19.2   704 – Lincoln Laboratory ETS, New Mexico MPS 213646
2007 08 15.29332 22 54 54.37 -07 11 49.0 19.2   704 – Lincoln Laboratory ETS, New Mexico MPS 213646
2007 08 15.30540 22 54 53.80 -07 11 53.7 19.2   704 – Lincoln Laboratory ETS, New Mexico MPS 213646
2007 08 15.31749 22 54 53.38 -07 12 00.0 19.4   704 – Lincoln Laboratory ETS, New Mexico MPS 213646
2007 08 23.22847 22 49 20.38 -08 13 18.0 19.2 V 691 – Steward Observatory, Kitt Peak-Spacewatch MPS 214347
2007 08 23.24613 22 49 19.50 -08 13 26.5 18.9 V 691 – Steward Observatory, Kitt Peak-Spacewatch MPS 214347
2007 08 23.26378 22 49 18.66 -08 13 34.8 19.0 V 691 – Steward Observatory, Kitt Peak-Spacewatch MPS 214347
2007 09 03.25178 22 40 32.26 -09 42 48.3 18.4 V 703 – Catalina Sky Survey MPS 214347
2007 09 03.25872 22 40 31.94 -09 42 52.0 18.6 V 703 – Catalina Sky Survey MPS 214347
2007 09 03.26567 22 40 31.58 -09 42 55.0 18.6 V 703 – Catalina Sky Survey MPS 214347
2007 09 03.27264 22 40 31.18 -09 42 58.3 18.6 V 703 – Catalina Sky Survey MPS 214347
2007 09 06.18756 22 38 12.84 -10 05 40.4 18.4   704 – Lincoln Laboratory ETS, New Mexico MPS 214951
2007 09 06.19925 22 38 12.24 -10 05 46.1 18.6   704 – Lincoln Laboratory ETS, New Mexico MPS 214951
2007 09 06.20323 22 38 12.02 -10 05 48.7 18.5 R 699 – Lowell Observatory-LONEOS MPS 214347
2007 09 06.21091 22 38 11.72 -10 05 50.7 18.7   704 – Lincoln Laboratory ETS, New Mexico MPS 214951
2007 09 06.22607 22 38 10.97 -10 05 59.1   699 – Lowell Observatory-LONEOS MPS 214347
2007 09 06.24891 22 38 09.84 -10 06 10.1   699 – Lowell Observatory-LONEOS MPS 214347
2007 09 06.27174 22 38 08.66 -10 06 20.1   699 – Lowell Observatory-LONEOS MPS 214347
2007 09 18.16938 22 29 57.80 -11 26 32.3 18.9 R 699 – Lowell Observatory-LONEOS MPS 215943
2007 09 18.18767 22 29 57.18 -11 26 40.4   699 – Lowell Observatory-LONEOS MPS 215943
2007 09 18.20593 22 29 56.44 -11 26 45.0   699 – Lowell Observatory-LONEOS MPS 215943
2007 09 18.22421 22 29 55.83 -11 26 52.6   699 – Lowell Observatory-LONEOS MPS 215943
2007 09 19.18148 22 29 24.26 -11 32 10.4 19.4 C 704 – Lincoln Laboratory ETS, New Mexico MPS 291354
2007 09 19.19359 22 29 23.73 -11 32 14.3 19.5 C 704 – Lincoln Laboratory ETS, New Mexico MPS 291354
2007 09 19.20572 22 29 23.31 -11 32 18.6 18.7 C 704 – Lincoln Laboratory ETS, New Mexico MPS 291354
2007 09 19.21786 22 29 22.98 -11 32 22.1 18.7 C 704 – Lincoln Laboratory ETS, New Mexico MPS 291354
2009 01 01.18835 07 16 28.63 +18 29 46.2 21.0 V 691 – Steward Observatory, Kitt Peak-Spacewatch MPS 271568
2009 01 01.20648 07 16 27.40 +18 29 49.0 21.0 V 691 – Steward Observatory, Kitt Peak-Spacewatch MPS 271568
2009 01 01.22458 07 16 26.20 +18 29 52.1 20.9 V 691 – Steward Observatory, Kitt Peak-Spacewatch MPS 271568
2010 03 21.39752 14 24 34.27 -09 32 16.1 20.7 V 691 – Steward Observatory, Kitt Peak-Spacewatch MPS 320420
2010 03 21.41523 14 24 33.95 -09 32 11.4 20.7 V 691 – Steward Observatory, Kitt Peak-Spacewatch MPS 320420
2010 03 21.43640 14 24 33.53 -09 32 06.0 20.9 V 691 – Steward Observatory, Kitt Peak-Spacewatch MPS 320420
2010 03 25.38433 14 23 14.33 -09 13 56.2 20.1 V 691 – Steward Observatory, Kitt Peak-Spacewatch MPS 320420
2010 03 25.40203 14 23 13.89 -09 13 51.0 20.3 V 691 – Steward Observatory, Kitt Peak-Spacewatch MPS 320420
2010 03 25.41974 14 23 13.42 -09 13 45.6 20.5 V 691 – Steward Observatory, Kitt Peak-Spacewatch MPS 320420
2010 04 07.40240 14 15 41.72 -07 59 37.6 19.8 V G96 – Mt. Lemmon Survey MPS 321949
2010 04 07.40733 14 15 41.50 -07 59 35.8 19.8 V G96 – Mt. Lemmon Survey MPS 321949
2010 04 07.41108 14 15 41.32 -07 59 34.1 19.9 V G96 – Mt. Lemmon Survey MPS 321949
2010 04 07.41483 14 15 41.14 -07 59 33.0 19.9 V G96 – Mt. Lemmon Survey MPS 321949
